Weather in Merida

Venezuela     8°36′10″N   71°08′39″W
temp.,
°C
wind,
m/s
gust,
m/s
humid.,
%
clouds,
%
prec.,
mm/h
press.,
hPa
HPBL,
m
16 may, sun
sun1623:00+14se229078 0.1 101881
02:00+12ese2289100 0.1 101739
05:00+11ese3488100 0.0 101768
08:00+15se347691 0.0 1017260
11:00+20s335492 0.1 10151499
14:00+20sw3262100 0.6 10131306
17:00+17sw2275100 1.4 1013617
20:00+14sse118938 2.5 101621
17 may, mon
mon1723:00+13se1190100 0.3 101838
02:00+13ese229397 0.3 101730
05:00+12se2294100 0.0 101636
08:00+15se23795 0.1 1017340
11:00+19ssw3362100 0.3 10161231
14:00+19s236573 1.2 10141065
17:00+18ssw227076 2.0 1013827
20:00+14se2290100 3.1 101751
18 may, tue
tue1823:00+12ese238988 0.1 101962
02:00+12ese239383 0.1 101851
05:00+13ese239287 0.4 101781
08:00+14se348696 0.8 1018200
11:00+15sse3383100 1.8 1018504
14:00+17sse337172 2.6 1015761
17:00+18sw2272100 1.9 1013710
20:00+13se219363 4.3 101715
19 may, wed
wed1923:00+12ese229136 0.4 101922
02:00+11ese329121 0.5 101838
05:00+11ese3391100 0.0 101751
08:00+14se238374 0.0 1018228
11:00+19ssw226439 0.9 10161225
14:00+16s2379100 3.5 1015625
17:00+15sse238491 1.1 1014380
20:00+14se238994 2.1 101674
20 may, thu
thu2023:00+13ese2390100 0.4 101870
02:00+13ese3494100 1.3 1016144
05:00+12ese348996 0.2 1016114
08:00+14se3581100 0.2 1017275
11:00+20sse345592 0.1 10161436
14:00+20sse345725 0.4 10131397
17:00+19sse336319 0.9 10121086
20:00+13ese239111 1.1 101645